logo tempoitalia

Diretta Meteo Cleburne, Stati Uniti (USA)lunedì 31 agosto ore 01:35

Mappa
Sereno 28 °C Sereno 24 Ore: T.min 24 T.max 38
Ponente Sud/Sud-Est Km/h 11.1 Punto di rugiada: 18 °C Umidità: 54% Visibilità: 10 Km
Il sole sorge alle: 07:04 Il sole tramonta alle: 19:55
31 Agosto 2026 01:35 tempo osservato: Sereno Sereno 28 54 1013 vento: Nord S/SE 11.1
31 Agosto 2026 01:15 tempo osservato: Sereno Sereno 28 51 1013 vento: Nord S 13
31 Agosto 2026 00:55 tempo osservato: Sereno Sereno 28 51 1013 vento: Nord S/SE 11.1
31 Agosto 2026 00:35 tempo osservato: Sereno Sereno 28 48 1013 vento: Nord S 9.3
31 Agosto 2026 00:15 tempo osservato: Sereno Sereno 29 45 1013 vento: Nord S/SE 11.1
30 Agosto 2026 23:55 tempo osservato: Sereno Sereno 29 42 1013 vento: Nord S/SE 9.3
30 Agosto 2026 23:35 tempo osservato: Sereno Sereno 29 42 1013 vento: Nord S/SE 9.3
30 Agosto 2026 23:15 tempo osservato: Sereno Sereno 29 42 1013 vento: Nord S/SE 9.3
30 Agosto 2026 22:55 tempo osservato: Sereno Sereno 30 40 1013 vento: Nord S/SE 9.3
30 Agosto 2026 22:35 tempo osservato: Sereno Sereno 30 40 1012 vento: Nord S/SE 11.1
30 Agosto 2026 22:15 tempo osservato: Sereno Sereno 30 40 1012 vento: Nord S/SE 11.1
30 Agosto 2026 21:55 tempo osservato: Sereno Sereno 31 35 1012 vento: Nord S/SE 11.1
30 Agosto 2026 21:35 tempo osservato: Sereno Sereno 31 35 1012 vento: Nord S/SE 11.1
30 Agosto 2026 21:15 tempo osservato: Sereno Sereno 31 33 1012 vento: Nord S/SE 9.3
30 Agosto 2026 20:55 tempo osservato: Sereno Sereno 31 33 1011 vento: Nord SE 11.1
30 Agosto 2026 20:35 tempo osservato: Sereno Sereno 32 31 1011 vento: Nord S/SE 7.4
30 Agosto 2026 20:15 tempo osservato: Sereno Sereno 33 29 1011 vento: Nord S/SE 9.3
30 Agosto 2026 19:55 tempo osservato: Sereno Sereno 34 28 1011 vento: Nord S/SE 11.1
30 Agosto 2026 19:35 tempo osservato: Sereno Sereno 34 28 1011 vento: Nord S/SE 13
30 Agosto 2026 19:15 tempo osservato: Sereno Sereno 35 24 1011 vento: Nord SE 16.7
30 Agosto 2026 18:55 tempo osservato: Sereno Sereno 36 23 1011 vento: Nord SE 20.3
30 Agosto 2026 18:35 tempo osservato: Sereno Sereno 36 23 1011 vento: Nord SE 22.2
30 Agosto 2026 18:15 tempo osservato: Sereno Sereno 37 22 1011 vento: Nord SE 18.5
30 Agosto 2026 17:55 tempo osservato: Sereno Sereno 37 22 1011 vento: Nord SE 22.2
30 Agosto 2026 17:35 tempo osservato: Sereno Sereno 37 22 1011 vento: Nord E/SE 24
30 Agosto 2026 17:15 tempo osservato: Poco Nuvoloso Poco Nuvoloso 37 20 1011 vento: Nord E/SE 22.2
30 Agosto 2026 16:55 tempo osservato: Sereno Sereno 38 19 1011 vento: Nord S/SE 14.8
30 Agosto 2026 16:35 tempo osservato: Sereno Sereno 38 19 1011 vento: Nord SE 22.2
30 Agosto 2026 16:15 tempo osservato: Sereno Sereno 37 20 1011 vento: Nord S 16.7
30 Agosto 2026 15:55 tempo osservato: Sereno Sereno 37 20 1012 vento: Nord S/SO 11.1
30 Agosto 2026 15:35 tempo osservato: Sereno Sereno 37 22 1012 vento: Nord S 16.7
30 Agosto 2026 15:15 tempo osservato: Sereno Sereno 38 21 1012 vento: Nord S/SE 16.7
30 Agosto 2026 14:55 tempo osservato: Sereno Sereno 38 22 1012 vento: Nord SE 18.5
30 Agosto 2026 14:35 tempo osservato: Sereno Sereno 37 22 1013 vento: Nord S 16.7
30 Agosto 2026 14:15 tempo osservato: Sereno Sereno 37 22 1013 vento: Nord S 24
30 Agosto 2026 13:55 tempo osservato: Sereno Sereno 37 23 1014 vento: Nord S 20.3
30 Agosto 2026 13:35 tempo osservato: Sereno Sereno 37 23 1014 vento: Nord S/SE 16.7
30 Agosto 2026 13:15 tempo osservato: Sereno Sereno 37 23 1014 vento: Nord S/SE 16.7
30 Agosto 2026 12:55 tempo osservato: Sereno Sereno 36 25 1015 vento: Nord S/SE 24
30 Agosto 2026 12:35 tempo osservato: Sereno Sereno 36 28 1015 vento: Nord S 16.7
30 Agosto 2026 12:15 tempo osservato: Sereno Sereno 36 28 1015 vento: Nord S/SE 20.3
30 Agosto 2026 11:55 tempo osservato: Sereno Sereno 35 32 1015 vento: Nord S 16.7
30 Agosto 2026 11:35 tempo osservato: Sereno Sereno 34 36 1016 vento: Nord S/SE 18.5
30 Agosto 2026 11:15 tempo osservato: Sereno Sereno 34 36 1016 vento: Nord S 20.3
30 Agosto 2026 10:55 tempo osservato: Sereno Sereno 33 41 1016 vento: Nord S 18.5
30 Agosto 2026 10:35 tempo osservato: Sereno Sereno 32 46 1016 vento: Nord S 14.8
30 Agosto 2026 10:15 tempo osservato: Sereno Sereno 32 46 1016 vento: Nord S 13
30 Agosto 2026 09:55 tempo osservato: Sereno Sereno 31 48 1016 vento: Nord S 13
30 Agosto 2026 09:35 tempo osservato: Sereno Sereno 29 62 1016 vento: Nord S/SO 9.3
30 Agosto 2026 09:15 tempo osservato: Sereno Sereno 28 69 1016 vento: Nord S 9.3
30 Agosto 2026 08:55 tempo osservato: Sereno Sereno 28 69 1016 vento: Nord S 9.3
30 Agosto 2026 08:35 tempo osservato: Sereno Sereno 27 74 1015 vento: Nord S 13
30 Agosto 2026 08:15 tempo osservato: Sereno Sereno 26 78 1015 vento: Nord S/SE 7.4
30 Agosto 2026 07:55 tempo osservato: Sereno Sereno 26 78 1015 vento: Nord S 7.4
30 Agosto 2026 07:35 tempo osservato: Sereno Sereno 25 83 1015 vento: Nord S 7.4
30 Agosto 2026 07:15 tempo osservato: Sereno Sereno 24 88 1014 vento: Nord S 7.4
30 Agosto 2026 06:55 tempo osservato: Sereno Sereno 24 88 1014 vento: Nord S/SE 9.3
30 Agosto 2026 06:35 tempo osservato: Sereno Sereno 25 78 1014 vento: Nord S/SE 7.4
30 Agosto 2026 06:15 tempo osservato: Sereno Sereno 25 83 1014 vento: Nord S/SE 9.3
30 Agosto 2026 05:55 tempo osservato: Sereno Sereno 25 83 1014 vento: Nord S/SE 9.3
30 Agosto 2026 05:35 tempo osservato: Sereno Sereno 25 78 1014 vento: Nord S/SE 9.3
30 Agosto 2026 05:15 tempo osservato: Sereno Sereno 25 78 1014 vento: Nord S 9.3
30 Agosto 2026 04:55 tempo osservato: Sereno Sereno 25 78 1014 vento: Nord S/SE 9.3
30 Agosto 2026 04:35 tempo osservato: Sereno Sereno 26 73 1013 vento: Nord S/SE 9.3
30 Agosto 2026 04:15 tempo osservato: Sereno Sereno 26 73 1014 vento: Nord S 9.3
30 Agosto 2026 03:55 tempo osservato: Sereno Sereno 27 69 1013 vento: Nord S 11.1
30 Agosto 2026 03:35 tempo osservato: Sereno Sereno 26 69 1013 vento: Nord S 9.3
30 Agosto 2026 03:15 tempo osservato: Sereno Sereno 27 65 1013 vento: Nord S 9.3
30 Agosto 2026 02:55 tempo osservato: Sereno Sereno 27 65 1014 vento: Nord S 9.3
30 Agosto 2026 02:35 tempo osservato: Sereno Sereno 27 61 1014 vento: Nord S 7.4
30 Agosto 2026 02:15 tempo osservato: Sereno Sereno 27 61 1014 vento: Nord S 9.3
30 Agosto 2026 01:55 tempo osservato: Sereno Sereno 28 58 1014 vento: Nord S 11.1
30 Agosto 2026 01:35 tempo osservato: Sereno Sereno 28 54 1014 vento: Nord S/SE 9.3